Dewpoint
56 56 56 56 56 56 56 57 57 56 56 56 56 56 56 56 56 56 56 56 56 56 57 57 56 56 45 28 23 39 57 56 40 33 27 31 29 27 23 24 28 23 24 26 25 20 19
56 56 56 56 55 55 56 56 56 56 56 56 56 56 55 55 55 55 56 56 56 56 56 57 56 54 36 20 29 37 39 37 32 27 26 28 26 26 24 24 25 26 24 23 21 19 20
56 56 56 56 55 55 56 56 56 56 56 55 55 55 55 55 55 55 55 55 55 56 55 55 55 42 32 22 27 30 33 26 30 25 25 26 26 23 23 24 23 23 22 23 20 20 22
56 56 55 55 54 55 55 55 55 55 55 55 55 55 54 54 55 54 55 54 54 55 54 54 54 42 25 26 25 23 24 23 25 29 27 28 27 26 22 24 24 21 22 19 23 22 25
55 55 55 55 54 55 55 55 55 55 54 54 55 54 54 53 55 54 54 53 52 53 52 54 42 33 23 37 26 26 25 22 28 28 32 31 31 27 25 22 20 23 14 19 20 24 25
55 55 54 53 53 54 54 54 54 54 54 54 54 54 53 53 55 54 53 52 53 51 47 41 30 31 26 23 27 29 29 29 29 32 31 30 29 23 23 20 17 15 16 16 16 25 26
54 54 53 53 53 54 54 53 53 53 53 53 53 53 53 53 54 53 48 42 32 30 34 26 25 24 25 28 31 29 28 31 30 25 21 29 21 17 17 19 15 15 17 16 19 25 25
54 54 53 53 53 53 53 52 52 52 52 52 53 53 53 53 54 51 41 32 27 33 26 28 26 26 28 30 26 28 29 27 26 20 27 24 18 20 21 21 20 20 18 18 20 23 23
53 53 53 52 52 52 52 52 51 51 52 52 52 52 52 53 52 46 37 34 38 36 27 25 26 26 27 29 25 28 27 27 23 24 24 21 19 22 21 22 20 20 19 19 18 22 22
53 52 52 51 51 51 51 51 51 51 51 51 51 51 52 53 41 36 33 36 39 36 18 18 25 27 28 29 26 30 30 28 25 22 25 20 22 22 21 19 20 20 20 19 21 24 27
51 51 51 51 50 50 50 50 50 50 50 51 50 51 51 53 39 35 34 40 41 32 20 25 26 31 29 26 28 28 31 29 26 23 26 23 22 20 22 20 20 20 22 21 21 24 25
51 51 50 50 50 50 50 50 50 51 50 50 50 50 50 48 47 40 41 42 37 19 22 23 27 27 25 27 28 29 28 28 27 24 23 22 24 24 23 26 25 26 23 22 22 22 31
49 49 49 50 50 50 49 49 49 50 50 50 50 50 49 45 37 43 45 39 24 17 18 22 24 26 24 25 26 26 26 26 27 22 21 22 21 25 27 26 26 24 23 27 24 26 19
48 49 49 49 49 49 49 49 49 49 49 50 49 49 50 46 43 45 40 29 21 15 14 24 24 25 21 24 24 25 24 23 25 22 23 20 19 24 25 27 31 23 31 32 17 10 9
49 49 49 49 48 48 48 48 49 50 50 50 49 48 45 43 44 45 35 30 16 16 17 22 21 20 21 23 23 23 22 24 25 24 24 21 16 24 27 28 29 24 24 19 24 17 19
49 49 48 48 48 48 48 48 48 49 51 50 47 43 44 43 47 42 31 30 25 22 23 20 19 19 18 20 19 22 22 27 26 26 26 21 20 22 26 28 28 28 24 21 28 20 13
48 48 48 48 47 47 47 47 48 48 51 49 46 38 42 44 43 36 30 30 24 21 23 21 19 16 17 19 20 20 20 24 26 28 26 25 27 20 23 25 31 25 33 25 26 17 20
47 47 47 47 47 46 46 46 47 47 50 49 42 33 42 43 39 34 29 26 28 22 23 22 21 18 17 17 19 18 19 20 29 30 26 25 30 22 19 25 28 28 30 33 21 20 17
46 46 46 46 46 46 45 46 46 46 49 43 37 38 43 40 35 35 35 28 27 23 23 21 19 20 19 18 20 17 19 27 29 28 28 32 27 19 17 24 25 28 30 27 24 25 22
45 45 45 45 45 45 45 45 45 45 49 49 40 34 37 39 37 35 33 30 32 33 26 25 20 21 19 17 20 22 24 29 29 31 31 28 23 28 20 24 27 26 27 25 30 27 24
45 45 44 45 45 45 45 44 44 45 50 49 42 38 37 34 34 31 33 30 31 32 33 31 27 25 23 21 20 20 28 30 33 34 27 28 27 19 20 23 23 24 27 25 24 29 28
45 46 45 44 44 44 44 44 44 43 47 43 40 39 40 37 33 32 34 28 27 27 30 28 27 26 25 22 20 19 27 27 26 30 26 22 25 21 19 17 17 22 23 27 26 22 19
45 45 45 45 44 44 44 43 43 42 42 39 40 37 41 35 32 31 30 30 30 30 29 24 28 26 26 24 22 22 25 26 29 28 25 25 20 20 11 9 5 11 15 24 25 25 22
44 44 44 44 44 44 43 43 43 42 38 37 36 36 39 32 31 30 27 29 29 30 28 22 17 21 21 21 20 15 20 22 22 21 22 19 18 16 10 4 2 21 8 19 24 22 22
43 43 43 43 43 43 43 43 43 42 39 33 33 33 36 27 22 20 22 22 22 20 22 21 22 22 21 12 8 3 0 4 18 19 18 15 12 14 12 2 1 1 10 17 19 23 23
43 43 42 41 42 41 42 42 42 42 40 33 32 34 33 32 16 19 19 19 21 20 20 21 22 21 20 16 12 14 0 -1 10 17 17 13 14 15 11 7 2 1 17 17 17 18 18
42 41 41 41 41 41 42 42 41 41 39 33 31 33 31 33 25 23 19 19 16 20 22 21 22 19 18 14 10 5 -5 4 8 10 14 18 18 13 6 11 4 6 23 19 8 15 18
41 41 41 41 41 40 41 41 40 40 40 34 31 32 29 32 27 28 27 21 21 21 21 22 20 19 19 17 13 11 8 10 11 12 15 16 15 12 10 10 7 20 17 13 19 20 21
39 40 40 40 40 40 40 40 39 39 39 35 27 31 31 30 28 29 28 28 28 28 23 21 22 18 21 20 18 17 12 11 10 4 14 16 17 15 11 8 17 19 20 20 21 22 22
Lifted_Index
4 4 5 6 7 7 6 6 6 6 7 7 7 7 7 7 7 7 6 6 6 6 6 6 6 7 7 7 7 8 7 7 9 9 9 9 8 8 8 7 7 7 7 8 8 8 8
4 4 4 5 6 6 6 6 6 6 7 7 7 7 7 7 7 7 6 6 6 6 6 6 6 7 7 6 7 8 8 8 9 9 9 9 9 8 8 7 7 7 7 7 8 8 8
4 4 4 5 6 6 6 6 7 7 7 7 7 7 8 8 7 7 7 6 6 6 6 6 7 7 7 7 8 8 8 9 9 9 9 9 9 9 8 7 7 7 7 7 7 7 7
5 5 5 5 5 6 7 7 7 7 7 7 7 7 8 8 8 7 7 7 7 7 7 6 7 7 7 8 8 8 8 8 9 9 9 10 9 9 8 7 7 6 6 5 6 6 6
6 6 6 6 6 7 7 7 7 7 7 7 7 7 8 8 8 8 8 8 8 7 7 7 8 8 8 8 8 8 8 7 8 9 9 9 9 8 7 6 6 5 4 4 5 5 5
6 6 7 7 8 7 7 7 7 7 7 7 7 8 8 8 8 8 8 8 8 7 7 7 7 7 7 7 7 8 8 7 7 7 7 7 7 6 6 5 4 4 4 4 4 5 5
7 7 8 9 9 8 8 8 8 8 8 8 8 8 8 8 8 8 9 8 7 6 6 6 7 7 7 7 7 7 7 7 6 5 5 5 5 5 5 5 5 4 4 4 5 5 5
7 7 8 9 9 9 9 9 9 9 9 9 9 9 9 8 8 9 9 8 7 6 5 5 6 6 7 7 7 7 7 6 5 4 4 4 4 4 4 5 5 5 4 4 5 5 5
7 7 8 9 9 9 9 9 9 9 9 9 9 9 8 8 8 8 8 8 7 6 5 4 5 6 6 7 6 6 6 5 4 4 4 4 4 4 4 4 4 4 4 4 4 5 5
6 7 7 8 8 8 8 8 8 8 8 8 8 8 8 8 8 8 7 7 7 5 4 3 4 5 6 6 6 6 6 5 4 4 4 4 4 4 4 4 4 4 4 5 5 4 4
5 5 6 6 6 7 7 6 6 6 7 7 7 8 7 7 7 7 6 6 6 4 3 2 3 5 5 5 5 6 6 6 5 4 4 4 4 4 4 5 5 5 5 5 5 4 4
4 4 5 5 5 5 5 5 5 5 5 6 6 7 7 6 6 6 6 6 5 3 2 2 3 3 4 4 5 5 5 5 5 4 4 4 5 5 5 5 5 5 5 4 4 3 3
4 4 5 5 5 5 5 5 5 5 5 5 6 7 6 6 5 6 6 5 3 2 2 2 2 2 3 3 4 4 4 4 4 3 3 4 4 5 6 5 5 5 4 3 2 2 1
5 5 5 5 5 5 5 5 5 5 5 5 6 6 6 5 6 6 5 4 2 2 2 2 2 2 2 2 3 3 3 3 3 3 3 3 4 5 6 5 5 5 4 2 1 1 1
6 6 6 6 6 6 6 6 6 5 5 5 6 5 5 6 6 5 3 2 2 2 3 3 2 2 2 2 3 3 3 3 3 3 3 3 3 4 5 5 5 5 4 3 2 2 1
7 7 6 6 6 6 6 6 6 6 5 5 5 5 5 5 5 4 2 1 2 3 4 4 3 2 2 2 2 3 3 3 3 3 4 3 3 4 5 5 5 4 4 3 3 2 1
8 7 7 7 7 7 7 7 7 6 6 5 5 4 4 4 4 3 2 1 2 4 4 4 4 3 3 3 3 3 3 3 3 4 4 4 3 3 4 4 4 4 4 3 3 2 1
9 8 8 8 8 8 8 9 8 8 7 6 5 5 4 4 3 3 2 2 3 4 5 5 4 4 3 3 3 3 3 3 3 4 3 4 3 3 3 4 5 4 4 4 3 3 2
10 10 9 9 9 9 9 10 10 9 7 7 6 5 5 4 3 3 3 3 3 4 5 5 4 4 3 3 3 3 3 3 4 4 3 4 3 2 3 4 5 4 4 4 4 3 3
11 10 10 10 10 10 10 11 10 9 8 7 7 6 5 5 4 3 3 3 3 4 4 4 3 3 3 3 3 3 3 3 4 4 4 4 3 3 3 4 4 4 4 4 4 3 3
11 11 11 10 10 11 11 11 10 9 7 7 7 6 6 5 5 4 4 4 3 3 4 4 3 3 3 3 3 3 3 4 4 5 5 4 3 3 3 4 4 4 4 4 4 3 3
11 11 11 11 11 11 11 12 11 9 7 7 7 6 6 5 5 5 4 4 4 4 5 4 4 4 4 4 4 4 4 5 5 5 4 4 3 3 3 4 4 4 4 5 4 4 4
11 11 11 11 11 11 11 12 12 11 9 8 7 7 6 6 5 5 5 5 5 5 5 5 5 5 5 5 5 5 5 5 5 5 4 4 4 3 3 4 4 4 5 4 4 4 4
11 11 11 11 11 11 11 11 12 12 11 10 9 8 7 6 7 6 6 6 6 5 5 5 5 5 5 6 6 6 6 6 6 6 5 5 4 4 4 4 3 4 4 4 4 4 4
12 11 11 11 11 11 11 11 11 11 11 11 10 9 8 7 7 7 7 7 7 6 6 6 6 6 7 7 6 5 5 5 5 6 6 5 4 3 3 2 3 4 4 4 4 4 4
12 11 11 11 10 10 10 10 10 10 10 10 10 9 8 7 7 7 6 6 6 6 6 6 7 7 7 7 5 4 4 4 4 4 4 4 3 3 2 2 2 4 5 5 4 4 4
11 11 11 11 10 10 10 10 10 9 9 9 8 8 7 6 6 6 6 5 5 5 5 5 6 6 6 5 3 3 2 3 2 2 3 3 3 2 2 2 2 4 5 5 4 5 5
11 11 11 11 11 11 10 10 10 10 10 9 8 8 7 6 6 6 6 6 6 5 5 5 5 5 4 3 3 2 2 2 2 2 3 3 2 2 2 2 3 5 6 6 6 7 7
11 11 11 11 11 11 11 11 11 11 11 10 9 9 8 7 6 7 7 7 7 6 6 5 5 4 4 3 3 2 2 3 3 3 3 3 3 3 3 3 5 6 7 7 7 8 8